Location: Unspecified
(64.9000°N, 0.0000°E)
Time: 23:00:57
(UTC+00:00)

Transit 2A Rocket - Pass Details

Date: 25 June 2019
Orbit: 593 x 910 km, 66.7° (Epoch: 12 October)

Event Time Altitude Azimuth Distance (km) Brightness Sun altitude
Rises 08:27:11 0° 162° (SSE) 3,525 8.9 36.1°
Reaches altitude 10° 08:30:52 10° 140° (SE) 2,564 8.8 36.5°
Maximum altitude 08:33:59 15° 108° (ESE) 2,210 8.9 36.8°
Drops below altitude 10° 08:37:03 10° 76° (ENE) 2,497 8.4 37.0°
Sets 08:40:33 0° 54° (NE) 3,378 8.6 37.4°
